Vorticity
0 4 6 15 19 12 22 14 14 17 3 15 15 5 7 9 3 12 13 -2 13 5 23 19 24 6 28 41 18 11 -8 -5 13 8 -7 10 9 4 -3 -10 14 9 12 16
2 3 -1 9 17 17 11 21 8 19 6 15 27 7 1 10 6 -0 7 -0 7 20 -1 26 26 17 40 31 23 14 25 11 11 20 4 29 10 3 8 12 -42 12 13 20
1 2 2 4 15 20 20 22 11 20 4 9 14 12 18 21 14 10 5 4 11 14 3 19 -6 20 2 38 14 13 42 6 -8 -2 14 12 -3 11 4 9 -1 -8 -16 -8
6 6 2 9 11 22 15 9 8 15 5 11 14 10 1 7 19 10 14 -4 5 6 4 23 2 4 20 0 49 -12 -6 -9 -0 -8 17 28 29 9 3 2 -15 10 14 10
0 4 3 7 12 20 18 7 11 14 12 15 15 12 8 4 8 28 4 3 9 5 2 5 13 8 11 13 38 58 -24 38 5 24 16 16 18 15 1 13 15 -15 -25 -5
1 6 5 5 6 17 23 13 12 8 8 7 12 6 7 6 12 16 3 7 10 10 8 13 11 8 7 10 6 23 15 1 4 13 18 14 23 16 20 6 17 3 -9 15
4 3 1 2 4 18 27 15 8 7 10 11 11 16 20 12 8 9 15 16 -1 18 5 12 6 7 8 4 11 15 15 10 10 23 -5 7 9 25 30 9 7 -7 4 19
2 4 2 1 2 10 28 17 9 13 9 8 7 7 -4 1 7 10 14 9 15 9 14 16 16 7 11 8 15 8 14 6 11 14 9 8 13 19 29 26 18 17 13 10
3 4 4 2 1 6 22 24 7 10 18 -8 5 -3 17 18 15 25 5 14 15 3 14 11 5 8 7 5 15 16 11 9 6 7 11 6 13 15 16 25 25 30 19 4
3 3 4 2 2 4 18 23 10 2 13 17 13 3 10 26 19 15 12 23 8 9 10 12 11 8 14 9 9 6 21 16 14 11 10 12 14 12 14 0 -3 33 23 14
4 4 4 2 2 4 15 18 7 5 14 21 11 12 14 6 14 13 18 14 12 12 8 12 9 10 7 11 9 10 13 12 12 9 10 10 14 17 -3 16 14 17 19 14
6 4 4 4 4 3 11 17 6 10 18 10 46 9 1 -0 8 12 14 10 9 12 12 7 10 9 10 11 14 12 10 11 10 12 13 17 12 20 -4 16 6 13 9 8
5 3 4 5 4 4 8 14 8 11 23 36 -2 12 33 26 20 20 13 7 -0 3 7 6 8 13 5 10 7 16 7 10 9 10 11 11 8 14 8 8 5 3 10 3
4 3 6 5 4 6 9 15 11 4 38 11 18 17 17 18 19 27 13 13 9 5 5 6 3 5 8 1 1 6 5 1 5 13 12 17 14 9 10 6 5 6 7 9
4 2 4 4 4 6 12 13 15 7 13 23 3 6 6 29 27 17 16 13 16 8 -5 4 0 5 12 12 18 25 23 17 12 8 11 5 9 8 8 2 5 9 9 9
3 3 3 4 5 6 11 9 11 10 3 17 19 -0 5 11 21 21 16 16 15 13 7 5 14 14 8 18 7 16 3 7 14 15 13 7 15 3 8 8 8 4 3 3
1 5 3 4 6 6 15 13 12 6 4 19 14 4 -5 3 20 15 18 21 19 13 13 5 3 3 2 4 1 10 -4 1 8 5 5 8 8 7 6 5 5 6 7 9
4 5 4 4 6 4 14 19 15 8 4 18 -14 10 5 3 19 9 11 15 17 15 13 14 1 6 9 11 7 15 27 25 16 10 7 9 13 15 13 11 11 8 7 11
7 7 4 3 5 4 13 21 13 14 1 8 -16 8 12 4 20 27 13 7 14 17 12 14 12 10 -3 0 7 16 8 4 2 1 1 1 3 5 7 8 4 4 7 12
6 9 5 6 3 6 21 21 14 21 17 7 -9 2 8 14 22 25 9 16 9 10 16 36 26 9 10 11 6 2 -2 -4 -4 8 13 14 19 18 16 12 4 6 8 9
8 8 7 5 3 21 28 13 10 13 11 11 -14 5 11 8 21 25 15 8 10 10 16 8 11 16 12 20 19 20 19 19 19 16 15 14 13 11 9 7 9 15 16 10
8 8 9 6 20 24 15 8 7 15 5 -11 8 9 9 22 20 21 19 15 13 10 12 11 15 20 20 18 23 18 10 11 13 14 16 18 23 20 23 20 22 21 21 19
8 8 23 26 14 10 6 7 4 -1 4 4 7 11 14 15 15 16 16 13 12 16 11 11 4 9 11 8 6 10 13 11 13 17 25 22 17 18 23 21 21 17 14 13
9 21 15 6 14 10 -3 11 10 2 7 9 5 13 8 20 38 16 9 12 11 11 7 11 8 3 -2 13 16 12 7 13 18 16 9 6 7 6 6 6 4 4 5 7
10 16 15 20 5 -3 3 5 9 7 11 9 9 18 16 30 14 12 10 17 14 11 8 7 7 5 10 10 3 9 13 14 10 8 3 4 4 4 4 5 7 9 11 11
10 6 -3 -3 5 7 6 6 8 12 16 9 13 19 14 15 11 14 9 4 12 8 14 13 21 21 14 11 14 18 16 15 8 4 4 4 5 4 6 18 18 20 22 20
12 11 19 10 6 4 11 12 9 12 15 13 21 16 12 0 25 12 -6 -13 5 14 7 5 12 21 24 19 11 18 20 11 8 3 4 3 5 4 13 16 12 11 11 11
Height
3072 3066 3058 3051 3044 3038 3031 3026 3023 3019 3016 3014 3012 3011 3011 3010 3008 3008 3006 3003 3000 2997 2993 2988 2986 2982 2980 2982 2988 2992 3000 3003 3004 3007 3009 3013 3016 3018 3022 3025 3027 3026 3026 3029
3071 3064 3056 3050 3043 3036 3030 3026 3024 3020 3017 3015 3012 3011 3011 3009 3008 3007 3007 3005 3002 2999 2996 2994 2990 2987 2983 2982 2986 2993 2998 3002 3004 3009 3012 3010 3010 3013 3017 3023 3026 3027 3028 3029
3069 3063 3057 3050 3042 3035 3029 3026 3024 3020 3018 3015 3012 3010 3008 3008 3008 3007 3006 3005 3002 3000 2998 2996 2995 2990 2988 2986 2989 2993 2997 2999 2999 3000 3002 3003 3005 3007 3014 3020 3024 3027 3027 3028
3069 3063 3057 3049 3042 3035 3030 3027 3024 3021 3018 3015 3013 3012 3011 3011 3010 3009 3007 3005 3004 3001 3000 2997 2996 2995 2992 2990 2990 2993 2995 2996 2998 2998 2999 2999 3001 3005 3012 3016 3022 3025 3029 3030
3067 3062 3056 3049 3042 3035 3033 3028 3025 3021 3017 3015 3014 3014 3014 3011 3010 3009 3008 3007 3006 3003 3001 3001 2998 2997 2995 2994 2992 2991 2993 2998 2998 2997 2998 2999 3001 3004 3009 3012 3017 3022 3025 3027
3065 3061 3056 3049 3042 3035 3030 3027 3024 3021 3020 3016 3015 3013 3010 3009 3008 3008 3008 3006 3005 3004 3002 3001 3000 2999 2998 2997 2995 2994 2995 2996 2998 2998 2998 3000 3004 3000 3004 3008 3011 3017 3020 3024
3063 3059 3053 3049 3042 3035 3030 3026 3023 3021 3020 3018 3015 3012 3010 3009 3007 3006 3006 3006 3004 3004 3002 3000 3000 2999 2999 2998 2998 2997 2997 2998 2999 3000 3001 3003 2998 2997 3000 3005 3009 3013 3017 3018
3061 3056 3052 3046 3040 3035 3030 3026 3024 3022 3019 3017 3015 3012 3010 3008 3006 3004 3004 3004 3004 3003 3001 3000 2999 2999 3000 2999 2999 2998 2998 2999 2998 2999 2999 2998 2996 2996 2999 3000 3005 3009 3012 3016
3059 3055 3050 3044 3040 3034 3029 3026 3023 3021 3018 3016 3014 3011 3007 3003 3002 3001 3002 3001 3002 3002 3001 3001 3000 3000 3000 3000 2999 2998 2998 2997 2999 2998 2998 2998 2998 2998 2999 3002 3004 3006 3009 3012
3057 3053 3049 3044 3039 3033 3029 3026 3023 3020 3016 3013 3011 3008 3006 3002 3001 3002 3001 3002 3002 3003 3002 3001 3001 3002 3001 3000 3000 2999 2998 2998 2998 2998 2998 2999 2999 2999 3001 3005 3009 3004 3006 3009
3055 3052 3049 3045 3039 3033 3029 3025 3022 3019 3014 3010 3008 3005 3004 3002 3001 3002 3002 3003 3002 3003 3003 3002 3002 3002 3002 3001 3001 3000 3000 2999 2999 2999 3000 3002 3000 3002 3004 3004 3003 3004 3005 3008
3053 3051 3048 3045 3040 3033 3028 3024 3021 3017 3012 3007 3004 3003 3002 3001 3000 2999 2999 3000 3001 3001 3003 3004 3003 3003 3003 3002 3001 3001 3002 3001 3000 3001 3000 3000 3000 3001 3003 3003 3004 3005 3006 3008
3050 3049 3046 3044 3039 3033 3028 3023 3020 3016 3009 3005 3004 3001 2999 2996 2996 2997 2998 2999 2999 3000 3001 3003 3004 3003 3003 3002 3002 3001 3001 3000 3000 3000 3000 2999 3000 3001 3002 3003 3004 3006 3007 3008
3047 3045 3044 3041 3038 3033 3028 3024 3020 3016 3011 3009 3005 3001 2998 2996 2995 2994 2996 2998 2999 3000 3001 3001 3003 3004 3003 3002 3001 3001 3001 3000 3000 3000 3000 3000 3000 3001 3002 3003 3004 3005 3005 3006
3043 3042 3041 3039 3035 3032 3028 3024 3021 3017 3016 3011 3007 3003 3000 2996 2994 2993 2994 2996 2998 2999 3000 3001 3002 3002 3002 3000 2999 2998 2998 2999 3000 3000 3000 3000 3001 3001 3002 3002 3003 3003 3003 3004
3039 3039 3038 3036 3033 3030 3026 3023 3021 3017 3015 3011 3007 3005 3001 2998 2996 2994 2994 2994 2995 2995 2997 2999 3000 3000 3002 2999 2998 2998 2997 2998 2998 2998 2998 2999 2999 2999 3000 3000 3000 3001 3001 3001
3035 3036 3035 3034 3032 3028 3025 3024 3020 3017 3015 3013 3008 3006 3004 3001 2998 2996 2994 2994 2993 2993 2994 2995 2998 2999 2999 2997 2995 2997 2996 2996 2997 2997 2997 2997 2997 2997 2997 2998 2997 2997 2997 2996
3031 3033 3032 3030 3029 3025 3023 3020 3017 3016 3015 3013 3012 3009 3005 3003 2999 2997 2995 2994 2993 2992 2993 2992 2993 2996 2996 2992 2992 2991 2991 2992 2993 2994 2994 2994 2994 2993 2993 2993 2993 2992 2992 2991
3028 3029 3029 3028 3026 3022 3020 3016 3015 3013 3016 3013 3012 3009 3005 3003 2999 2996 2995 2994 2992 2991 2990 2990 2992 2989 2989 2989 2989 2989 2990 2990 2991 2991 2991 2990 2990 2989 2988 2988 2988 2987 2986 2984
3025 3025 3025 3024 3022 3019 3017 3013 3013 3011 3012 3011 3010 3008 3005 3003 2998 2994 2996 2993 2991 2990 2990 2988 2986 2981 2985 2985 2985 2986 2986 2986 2986 2986 2985 2984 2983 2983 2983 2982 2982 2981 2980 2980
3020 3020 3021 3020 3018 3016 3013 3011 3012 3010 3010 3009 3008 3006 3003 3000 2996 2994 2995 2992 2991 2989 2988 2987 2983 2978 2979 2980 2980 2980 2980 2980 2980 2980 2979 2978 2978 2977 2977 2977 2976 2975 2974 2974
3016 3017 3017 3016 3014 3012 3012 3010 3009 3008 3008 3007 3005 3003 3000 2997 2994 2992 2992 2989 2988 2987 2986 2983 2979 2978 2976 2976 2976 2977 2977 2977 2976 2975 2974 2973 2972 2971 2971 2970 2969 2969 2968 2967
3012 3013 3013 3011 3011 3009 3008 3007 3006 3006 3004 3003 3001 3000 2998 2994 2993 2991 2991 2989 2984 2980 2980 2978 2975 2975 2975 2974 2973 2974 2974 2973 2972 2972 2971 2970 2969 2968 2967 2966 2966 2966 2965 2964
3007 3008 3008 3007 3004 3004 3004 3004 3003 3003 3001 3000 2999 2998 2996 2991 2990 2989 2987 2984 2983 2980 2976 2973 2973 2972 2973 2972 2971 2970 2971 2971 2971 2970 2970 2970 2969 2968 2967 2967 2966 2964 2963 2961
3003 3004 3001 3000 3000 3001 3001 3000 3000 2999 2997 2997 2995 2993 2991 2987 2986 2985 2983 2980 2976 2975 2975 2972 2970 2970 2969 2969 2969 2968 2968 2968 2969 2969 2969 2969 2969 2968 2966 2965 2963 2961 2959 2957
2998 2998 2996 2996 2997 2997 2996 2995 2994 2994 2993 2993 2992 2990 2987 2985 2984 2982 2980 2976 2972 2972 2970 2969 2967 2965 2964 2964 2963 2963 2964 2965 2966 2966 2967 2967 2967 2966 2964 2961 2959 2957 2954 2953
2990 2990 2991 2992 2992 2992 2991 2990 2989 2990 2991 2990 2990 2989 2986 2984 2981 2979 2975 2974 2973 2970 2968 2966 2963 2960 2959 2957 2958 2958 2959 2960 2962 2963 2964 2964 2964 2963 2961 2958 2956 2954 2952 2951